Theta_e
299 299 299 301 301 301 300 299 299 296 297 302 300 303 302 301 303 304 302 308 313 314 314 314 314 313 315 321 324 327 329 329 327 328 327 330 334 335
300 299 299 300 300 301 300 303 303 300 295 300 299 300 301 301 303 301 301 308 308 308 312 312 312 312 313 315 320 323 326 326 326 326 326 328 329 330
297 299 299 299 299 303 303 303 302 301 296 296 297 300 298 298 299 299 301 301 301 306 309 310 311 310 311 312 314 319 323 323 322 323 324 325 326 328
296 297 298 302 303 302 303 302 299 297 297 295 297 298 297 298 299 296 299 302 300 304 308 308 309 308 309 309 309 313 315 317 319 320 321 321 322 325
295 296 297 302 301 301 302 300 298 299 298 296 296 299 299 299 298 298 296 296 300 306 305 307 307 306 307 308 308 309 310 310 311 313 317 318 319 320
295 296 298 301 301 301 301 300 299 298 295 297 297 297 299 300 300 297 296 295 296 301 302 304 304 303 304 306 308 310 308 307 307 309 310 311 311 314
294 296 297 301 304 303 301 297 297 295 297 296 295 296 296 297 296 298 297 298 298 297 295 295 297 297 297 301 304 309 306 305 306 307 307 307 307 309
292 293 293 298 300 301 300 301 300 297 296 295 295 294 295 296 297 297 296 295 294 300 298 297 295 296 297 298 304 306 304 304 305 303 306 305 306 307
290 290 291 296 299 296 296 298 299 300 300 297 295 295 295 297 297 296 295 295 295 298 297 293 294 294 297 300 302 303 303 303 304 304 303 304 304 303
289 289 289 291 294 294 293 293 295 295 295 297 295 295 296 297 297 297 296 296 296 297 298 292 292 293 296 297 300 302 302 301 302 303 303 302 302 302
289 289 291 291 294 293 293 293 293 294 297 297 297 297 296 296 297 297 294 293 292 294 297 294 294 296 298 297 300 304 303 302 303 304 304 302 302 300
286 288 292 292 293 292 291 292 291 292 293 294 295 295 296 297 299 299 297 293 293 292 297 293 296 297 295 303 303 306 308 304 303 302 302 302 300 302
286 286 288 291 292 291 292 293 291 293 293 293 293 294 294 295 295 297 298 297 295 294 298 298 296 297 297 297 301 305 305 306 307 305 301 299 299 302
285 286 287 291 291 291 292 292 292 293 293 292 291 291 291 292 293 295 297 299 300 298 300 300 297 297 296 295 296 301 303 305 304 304 304 301 299 298
290 291 292 291 291 292 292 293 293 292 291 290 289 290 291 292 293 294 297 299 300 301 301 301 298 298 298 296 296 299 299 303 305 301 301 301 306 305
291 290 291 290 291 291 291 292 291 291 291 290 289 290 290 291 291 293 294 297 297 297 301 301 301 300 297 299 299 297 300 298 302 304 304 304 305 307
289 288 287 287 287 288 288 289 290 290 289 289 288 287 288 289 290 292 293 296 295 295 296 298 300 301 300 299 297 298 297 296 301 303 303 303 302 301
288 286 286 286 286 286 286 286 288 288 288 287 286 286 286 287 288 289 292 295 295 295 295 297 297 298 297 296 297 295 297 297 301 303 303 301 300 299
286 286 286 286 286 285 285 285 285 286 287 286 285 285 286 286 286 287 290 292 295 295 296 297 297 296 294 293 294 295 292 296 297 298 300 299 298 298
287 286 286 287 286 284 283 284 284 284 284 284 284 285 285 285 286 288 289 290 294 296 296 297 297 297 295 296 295 292 292 293 295 297 298 297 297 296
287 286 285 286 285 284 283 283 283 283 283 283 283 284 285 286 286 288 291 289 290 297 296 297 298 292 300 298 294 291 292 294 295 293 293 294 296 298
283 283 283 284 284 283 282 282 282 282 282 282 282 283 285 286 287 289 292 296 297 298 298 300 300 300 299 298 292 291 291 292 294 295 295 294 291 291
283 282 282 282 282 282 281 281 281 281 281 281 282 283 285 286 289 292 297 301 301 300 300 298 298 296 294 293 291 290 289 290 290 290 292 295 295 295
Wind_Speed
5 5 3 3 3 3 2 2 2 7 8 3 10 8 7 4 9 8 10 19 20 20 18 18 16 19 21 15 11 11 9 11 11 9 4 28 10 7
4 5 4 3 4 3 3 3 2 4 6 8 7 10 9 6 9 6 8 16 18 21 19 19 16 17 19 18 14 12 12 14 15 17 16 9 5 4
5 5 5 5 3 3 4 4 5 5 6 7 5 9 10 9 8 5 7 6 6 17 18 17 13 15 18 18 17 13 7 8 6 9 12 8 6 4
6 5 5 5 4 4 3 4 4 4 4 12 10 8 8 9 10 8 7 7 6 12 17 16 12 14 15 15 16 12 11 9 10 10 9 8 2 1
5 6 6 6 3 5 3 3 3 5 6 6 10 8 8 6 9 6 5 5 6 13 14 13 11 13 15 14 14 13 10 9 9 8 9 6 1 7
6 5 6 6 6 4 5 5 6 6 5 8 9 9 8 9 7 8 7 3 5 7 11 8 11 15 16 15 13 14 10 11 9 9 9 8 7 7
6 6 6 10 9 9 5 5 6 7 7 8 9 9 8 7 8 7 8 8 8 6 3 3 5 6 5 10 13 10 11 12 9 10 11 12 11 11
6 6 7 9 9 8 14 17 14 9 10 8 9 9 10 8 7 7 7 7 6 1 5 8 3 6 6 5 10 7 13 14 11 3 9 12 14 17
6 6 7 6 8 7 12 16 13 13 11 11 11 11 12 11 10 11 8 7 8 8 8 10 2 7 7 7 11 11 9 13 11 5 4 11 14 17
6 7 6 7 5 10 9 9 9 7 7 8 9 12 12 12 11 10 10 9 8 8 6 6 2 7 7 5 11 12 10 11 9 6 8 6 11 12
7 7 7 6 8 14 9 10 10 10 10 15 15 16 17 17 14 7 6 5 5 3 2 3 3 4 4 4 3 6 8 3 1 7 6 5 4 7
7 7 11 9 13 15 8 9 11 12 15 15 11 10 11 12 14 9 6 6 5 4 1 2 2 3 4 3 5 5 5 7 7 9 9 5 3 3
5 5 6 14 17 15 12 6 10 15 15 11 10 9 9 8 7 7 8 7 6 6 4 2 2 2 2 3 3 3 5 4 2 3 8 8 3 2
5 5 7 15 15 15 10 14 16 16 8 9 9 9 9 9 8 9 10 9 7 8 5 3 2 2 3 3 2 4 5 3 2 1 0 1 4 0
4 9 13 14 13 10 14 14 14 8 8 8 9 8 8 9 11 9 8 9 6 6 6 6 5 5 3 3 2 3 4 3 2 3 3 2 2 2
10 7 11 11 10 11 10 9 7 7 9 8 9 9 9 8 8 7 7 6 3 2 4 5 6 5 3 3 3 5 3 3 4 3 4 3 2 3
8 6 7 9 9 9 9 9 8 8 9 9 9 10 9 9 8 7 7 6 2 2 2 2 3 3 3 3 3 4 3 3 3 3 4 3 1 3
7 7 8 9 10 10 11 11 9 13 11 10 10 9 9 9 9 9 7 6 3 2 2 1 1 1 2 3 7 3 3 3 2 3 3 2 1 2
9 9 8 9 9 10 10 10 10 10 12 10 10 10 10 9 10 8 7 6 3 2 2 1 1 1 1 1 3 11 3 3 3 3 2 2 2 1
7 9 9 9 9 10 10 10 11 11 11 11 11 10 10 9 10 8 7 6 5 2 1 2 2 2 2 2 2 1 8 4 3 3 2 2 3 1
8 8 9 8 10 10 10 10 11 11 11 11 10 10 10 10 10 9 8 7 5 3 2 2 3 3 2 3 2 1 2 10 10 3 3 2 3 1
8 8 9 9 10 11 10 11 11 12 12 11 11 11 10 9 10 10 8 7 2 0 1 1 3 3 1 1 2 2 1 2 6 13 15 8 3 3
8 8 8 9 10 10 11 11 12 11 12 12 11 11 11 11 10 9 8 5 2 2 2 2 2 3 2 3 2 2 2 2 3 4 7 12 12 10
Wind_Direction
358 0 348 327 325 305 280 228 273 321 322 353 326 321 329 320 317 345 328 324 347 348 359 357 7 1 358 325 304 255 223 203 180 152 206 261 230 233
351 354 344 311 319 311 318 292 267 310 320 321 322 309 310 314 314 323 316 336 340 341 350 353 3 2 355 355 317 298 214 217 205 181 206 282 250 186
343 344 316 314 320 338 346 322 328 350 319 306 298 302 307 312 307 297 307 307 328 330 337 342 357 1 354 353 346 306 230 195 200 190 171 164 263 215
336 326 327 311 345 315 311 315 324 323 298 302 305 307 302 302 302 306 305 310 317 317 328 328 360 352 348 350 349 336 281 254 209 233 222 194 196 214
320 323 310 311 320 298 294 302 298 287 289 285 295 295 291 298 300 296 283 290 302 314 321 323 340 343 340 337 338 339 327 265 247 204 242 275 267 282
324 309 320 314 291 320 312 299 295 292 274 288 291 297 298 304 294 297 305 289 293 303 308 306 322 329 324 319 325 327 352 332 261 234 221 230 200 244
336 354 329 315 339 358 347 317 306 288 294 295 294 296 295 301 303 305 295 310 308 279 270 292 315 306 299 311 311 315 336 336 317 243 213 215 212 222
347 317 309 326 341 0 332 314 304 296 297 296 293 292 296 304 301 299 302 304 314 216 317 305 283 298 290 281 285 309 323 314 302 255 222 206 213 211
320 318 330 340 329 334 316 312 308 309 297 294 292 298 300 305 301 297 296 288 283 291 300 297 298 289 275 272 278 287 283 289 292 307 256 212 209 212
316 311 312 305 315 326 315 305 303 315 304 316 300 296 295 298 294 286 288 287 281 278 268 282 294 287 284 263 265 278 268 250 253 298 275 238 208 215
311 308 300 300 308 330 317 315 323 319 324 317 305 295 293 290 281 288 279 275 283 269 246 248 285 290 308 318 316 307 308 178 202 47 323 306 237 206
307 285 301 312 323 326 321 319 329 326 326 320 323 317 313 312 301 272 268 264 267 279 245 183 304 343 330 350 336 351 337 17 74 63 32 2 127 158
291 295 300 320 325 324 320 321 320 312 313 316 319 323 321 317 315 308 296 260 259 239 230 278 272 284 240 293 330 338 341 332 46 31 25 27 20 76
293 289 294 325 327 322 329 327 319 316 316 323 327 323 321 322 319 313 299 284 250 249 257 238 256 312 329 310 294 318 325 329 26 12 20 113 76 188
315 336 339 336 333 333 333 332 339 329 328 330 326 318 320 312 308 305 303 294 260 253 241 239 232 258 249 265 300 294 325 336 349 353 328 358 319 182
349 350 360 349 346 338 341 344 338 327 333 328 320 317 313 316 315 311 306 304 280 270 233 235 239 228 246 241 250 279 277 304 330 317 324 305 299 228
355 2 2 360 357 351 344 344 334 336 342 337 326 322 319 316 313 316 306 300 264 280 291 282 284 227 220 263 260 249 281 289 277 294 322 297 48 360
11 8 3 359 358 345 346 340 339 345 342 331 326 321 318 317 316 314 306 301 268 258 262 263 282 282 140 80 33 319 308 279 306 336 323 316 40 24
20 8 358 354 348 347 343 337 335 339 330 327 323 322 319 314 314 312 312 311 265 247 246 226 218 218 318 309 133 49 341 314 320 304 323 341 305 317
6 4 354 350 351 349 341 337 338 336 334 330 327 324 319 315 315 313 305 300 298 234 229 207 218 209 217 305 103 99 15 344 316 303 324 294 238 85
2 5 354 349 356 346 341 341 339 333 328 327 326 324 321 320 316 312 309 278 238 246 224 233 222 201 90 115 111 94 17 13 33 9 325 313 327 260
6 357 356 349 357 348 346 346 339 335 334 332 329 325 323 320 315 315 317 324 41 181 263 22 101 128 171 303 66 90 36 2 9 41 43 41 354 338
2 355 357 350 2 350 350 345 340 335 333 331 328 327 327 325 321 315 314 318 33 58 70 72 49 39 43 32 86 60 61 20 1 22 37 23 45 54